TimePDT,TemperatureF,Dew PointF,Humidity,Sea Level PressureIn,VisibilityMPH,Wind Direction,Wind SpeedMPH,Gust SpeedMPH,PrecipitationIn,Events,Conditions,WindDirDegrees,DateUTC
12:53 AM,57.0,46.9,69,30.24,10.0,South,5.8,-,N/A,,Overcast,180,2013-06-14 07:53:00
1:13 AM,57.2,46.4,67,30.24,10.0,South,6.9,-,N/A,,Overcast,170,2013-06-14 08:13:00
1:53 AM,57.0,46.0,67,30.24,10.0,South,10.4,16.1,N/A,,Overcast,170,2013-06-14 08:53:00
2:53 AM,57.0,45.0,64,30.24,10.0,South,10.4,-,N/A,,Overcast,170,2013-06-14 09:53:00
3:53 AM,55.9,45.0,67,30.24,10.0,South,10.4,17.3,N/A,,Overcast,170,2013-06-14 10:53:00
4:53 AM,57.0,45.0,64,30.23,10.0,South,11.5,19.6,N/A,,Overcast,170,2013-06-14 11:53:00
5:03 AM,57.2,44.6,63,30.24,10.0,South,9.2,-,N/A,,Overcast,170,2013-06-14 12:03:00
5:53 AM,57.0,46.0,67,30.24,10.0,South,8.1,-,N/A,,Overcast,170,2013-06-14 12:53:00
6:16 AM,57.2,46.4,67,30.25,10.0,SSE,10.4,-,N/A,,Overcast,150,2013-06-14 13:16:00
6:25 AM,57.2,46.4,67,30.24,10.0,SSE,8.1,-,N/A,,Overcast,160,2013-06-14 13:25:00
6:53 AM,57.0,46.0,67,30.25,10.0,SSE,10.4,-,N/A,,Overcast,160,2013-06-14 13:53:00
7:53 AM,57.9,46.0,65,30.24,10.0,SSE,10.4,-,N/A,,Overcast,160,2013-06-14 14:53:00
8:49 AM,57.2,46.4,67,30.24,10.0,South,6.9,-,N/A,,Overcast,170,2013-06-14 15:49:00
8:53 AM,57.9,46.9,67,30.24,10.0,SSE,10.4,-,N/A,,Overcast,160,2013-06-14 15:53:00
9:53 AM,59.0,46.0,62,30.24,10.0,South,11.5,-,N/A,,Overcast,170,2013-06-14 16:53:00
10:53 AM,61.0,46.0,58,30.24,10.0,South,9.2,-,N/A,,Overcast,190,2013-06-14 17:53:00
11:53 AM,62.1,46.0,56,30.24,10.0,South,10.4,-,N/A,,Mostly Cloudy,170,2013-06-14 18:53:00
12:53 PM,62.1,46.9,58,30.23,10.0,ESE,10.4,-,N/A,,Overcast,120,2013-06-14 19:53:00
1:53 PM,64.0,46.9,54,30.22,10.0,SSE,8.1,-,N/A,,Overcast,150,2013-06-14 20:53:00
2:53 PM,64.9,46.0,50,30.21,10.0,West,4.6,-,N/A,,Scattered Clouds,270,2013-06-14 21:53:00
3:53 PM,66.9,46.0,47,30.19,10.0,Calm,Calm,-,N/A,,Mostly Cloudy,0,2013-06-14 22:53:00
4:53 PM,66.0,46.0,48,30.17,10.0,Variable,6.9,-,N/A,,Overcast,0,2013-06-14 23:53:00
5:53 PM,66.9,46.9,49,30.14,10.0,Variable,4.6,-,N/A,,Clear,0,2013-06-15 00:53:00
6:53 PM,66.0,46.0,48,30.11,10.0,Calm,Calm,-,N/A,,Clear,0,2013-06-15 01:53:00
7:53 PM,66.0,45.0,47,30.10,10.0,NW,3.5,-,N/A,,Scattered Clouds,310,2013-06-15 02:53:00
8:53 PM,64.0,45.0,50,30.09,10.0,NNW,4.6,-,N/A,,Clear,330,2013-06-15 03:53:00
9:53 PM,63.0,46.0,54,30.09,10.0,NW,3.5,-,N/A,,Clear,310,2013-06-15 04:53:00
10:53 PM,61.0,46.0,58,30.08,10.0,Calm,Calm,-,N/A,,Clear,0,2013-06-15 05:53:00
11:53 PM,60.1,46.9,62,30.06,10.0,Calm,Calm,-,N/A,,Clear,0,2013-06-15 06:53:00